Regional Weather Roundup
Issued by NWS

Home | Current Version | Previous Version | Text Only | Print | Product List | Glossary On
Versions: 1 2 3 4 5 6 7 8 9 10 11 12 13 14 15 16 17 18 19 20 21 22 23 24 25 26 27 28 29 30 31 32 33 34 35 36 37 38 39 40 41 42 43 44 45 46 47 48 49 50
000
ASHW40 PHFO 240743
RWRHI

WEATHER ROUNDUP FOR HAWAII
NATIONAL WEATHER SERVICE HONOLULU HI
900 PM HST MON MAY 23 2016

THIS IS AN AUTOMATED REPORT THAT HAS NOT BEEN QUALITY CONTROLLED.

NOTE..."FAIR" INDICATES FEW OR NO CLOUDS BELOW 12,000 FEET WITH NO
SIGNIFICANT WEATHER AND/OR OBSTRUCTIONS TO VISIBILITY.

* - THESE SITES REPORT LIMITED FIELDS

HIZ001>004-240800-
KAUAI-NIIHAU-

CITY           SKY/WX    TMP DP  RH WIND       PRES   REMARKS
LIHUE APT      PTCLDY    75  66  73 NE13      30.13R
PORT ALLEN*      N/A     75 N/A N/A E14G20      N/A
POIPU*           N/A     77 N/A N/A NE8G17      N/A
PRINCEVILLE*     N/A     73 N/A N/A SE3         N/A
KOKOLE POINT*  NOT AVBL
MOLOAA DAIRY*    N/A     73  66  78 E3          N/A
WAIMEA HTS*      N/A     72  57  60 E2          N/A
PUU OPAE*        N/A     66  55  68 NE6G12      N/A
PUU LUA*       NOT AVBL
MAKAHA RIDGE*    N/A     68  55  64 E3G14       N/A
$$

HIZ005>011-240800-
OAHU-

CITY           SKY/WX    TMP DP  RH WIND       PRES   REMARKS
HONOLULU       PTCLDY    77  67  71 NE12      30.09R
KALAELOA       CLEAR     77  66  68 VRB5      30.10R
KANEOHE MCB    PTCLDY    76  70  82 NE9       30.08R
WHEELER FIELD  FAIR      73  66  76 VRB6      30.10R
BELLOWS*         N/A    N/A N/A N/A NE17        N/A
KAHUKU*          N/A    N/A N/A N/A VRB9G16     N/A
WHEELER*         N/A    N/A N/A N/A NE3         N/A
WAIANAE HARBOR   N/A    N/A N/A N/A NE8G15      N/A
DILLINGHAM*      N/A     72  64  78 MISG        N/A
KAHUKU TRN*      N/A     82  73  74 CALM        N/A
KAWAILOA*        N/A     70  64  83 E6G18       N/A
KII*             N/A     75  70  83 E15         N/A
MAKUA RANGE*     N/A     86  73  66 E8G18       N/A  HX  93
OAHU FOREST NW NOT AVBL
SCHOFIELD BRK*   N/A     82  77  83 MISG        N/A  HX  91
SCHOFIELD S*   NOT AVBL
WAIANAE VLY*   NOT AVBL
KUAOKALA*      NOT AVBL
HONOULIUULI*   NOT AVBL
MOKUOLOE IS*   NOT AVBL
PALEHUA*       NOT AVBL
WAIAWA PHB*    NOT AVBL
$$

HIZ012>013-240800-
MOLOKAI-

CITY           SKY/WX    TMP DP  RH WIND       PRES   REMARKS
MOLOKAI AIRPT  CLEAR     74  66  76 NE10      30.11R
KALAUPAPA      NOT AVBL
MAKAPULAPAI*     N/A     75  66  73 E17G26      N/A
MOLOKAI 1*     NOT AVBL
PUU ALII*        N/A     59  59 100 NE2G10      N/A
$$

HIZ016-240800-
KAHOOLAWE-

CITY           SKY/WX    TMP DP  RH WIND       PRES   REMARKS
KAHOOLAWE*       N/A     70 N/A N/A E1          N/A
HAKIOAWA*        N/A     87  82  85 MISG        N/A  HX 106
HONOKANAIA*      N/A     78  68  72 NE16G28   30.01R
KANELOA*         N/A     73  68  83 E20G32    30.14R
KEALIALALO*    NOT AVBL
LUA MAKIKA*    NOT AVBL
$$

HIZ014>015-240800-
LANAI-

CITY           SKY/WX    TMP DP  RH WIND       PRES   REMARKS
LANAI CITY     FAIR      70  66  87 N8        30.14S
LANAI 1*       NOT AVBL
$$

HIZ017>028-240800-
MAUI-

CITY           SKY/WX    TMP DP  RH WIND       PRES   REMARKS
KAHULUI        PTCLDY    75  64  68 E12G18    30.08R
KAPALUA-W MAUI NOT AVBL
HANA AIRPORT   NOT AVBL
HANA*            N/A     73 N/A N/A S3          N/A
HALEAKALA SUMM   N/A     39  21  48 E16         N/A
MAALAEA BAY*     N/A     75 N/A N/A N13G20      N/A
HALEAKALA*     NOT AVBL
KAUPO GAP*       N/A     63  43  48 N7G18       N/A
KULA 1*          N/A     46  45  93 NE5         N/A
$$

HIZ023>026-240800-
BIG ISLAND OF HAWAII COAST AND LOWER SLOPES-

CITY           SKY/WX    TMP DP  RH WIND       PRES   REMARKS
KAILUA KONA    RAIN      79  66  65 NE9G18    30.06R
HILO           LGT RAIN  72  68  88 SW6       30.11S FOG
HONOKAA*         N/A     68 N/A N/A VRB1        N/A
KAWAIHAE MWT*    N/A     79 N/A N/A W7          N/A
KAWAIHAE*        N/A     79 N/A N/A W5        30.06R
SOUTH POINT*     N/A     72 N/A N/A N15G21      N/A
UPOLU AIRPORT*   N/A    N/A N/A N/A E16G26      N/A
KAMUELA*       CLOUDY    64  61  88 NE20      30.18S
HAKALAU*         N/A     48  46  93 SW3         N/A
KALOKO-HONOKO*   N/A     79  63  57 CALM      30.05R
PALI 2*          N/A     64  57  77 S12G18      N/A
KEALAKOMO*       N/A     75  64  69 NE12G20     N/A
KAUPULEHU*       N/A     70  64  83 S5G10       N/A
KAPAPALA*        N/A     63  57  82 VRB3        N/A
LOWER KAHUKU*    N/A     63 -40   1 N3G12       N/A
PUHE CS*         N/A     79  66  65 W2          N/A
PUHO CS*         N/A     74  64  70 N3G9        N/A
PTA KEAMUKU*     N/A     59  55  88 CALM        N/A
WAIKOLOA*        N/A     72  61  68 E9G17       N/A
$$

HIZ027>028-240800-
BIG ISLAND OF HAWAII INTERIOR AND SUMMMITS-

CITY           SKY/WX    TMP DP  RH WIND       PRES   REMARKS
BRADSHAW FIELD PTCLDY    52  46  79 SE8G16    30.37S
MK VISITOR CEN   N/A     45  30  57 E8          N/A
MAUNA KEA*       N/A     36 -20   8 S7          N/A  WCI  30
MAUNA LOA*       N/A    N/A N/A N/A MISG        N/A
MAUNA LOA 1*   NOT AVBL
PTA KIPUKA*      N/A     55  55 100 SW3         N/A
PTA RANGE 17*    N/A     55  46  71 SE15G24     N/A
PTA WEST*        N/A     55  54  94 E7          N/A
NENE CABIN*      N/A     48  45  87 NE7         N/A
AHUMOA*          N/A     51  50  96 NE10        N/A
PTA PORTABLE*  NOT AVBL
PUU MALI*        N/A     52  50  93 S5          N/A
$$

HIC003-240800-
NORTHWEST ISLANDS-

CITY           SKY/WX    TMP DP  RH WIND       PRES   REMARKS
MIDWAY ISLAND  CLOUDY    66  64  94 NE21      30.22R FOG
MIDWAY NOS*      N/A     66 N/A N/A MISG      30.20R
FRENCH FRIGATE NOT AVBL
$$

PHZ110>124-180-240800-
BUOY REPORTS

STATION/POSITION TIME  TEMP    WIND        PRES    WAVE   SWELL
                       AIR SEA DIR/SP/G            HT/PER HT/DIR
                 (UTC) (F)     (DEG/KT/KT) (MB)    (FT/S) (FT/D)
BUOY 51001       0700   79 80   90/ 14/ 16 1018.0R
BUOY 51101       0650   76 78   60/ 14/ 16 1020.7R   5/ 8   3/ 80
BUOY 51100       NOT AVBL
BUOY 51002       0650   78 79   80/ 16/ 17 1017.2R   7/ 8   3/ 80
BUOY 51003       0650   78 80   80/ 12/ 12 1018.1R   5/ 8   5/ 80
BUOY 51004       0650   78 79   80/ 14/ 17 1017.5R   6/ 8   5/ 70
BARBERS PT BUOY  NOT AVBL
WAIMEA BAY BUOY  0704      78                N/A     4/ 8
KAILUA BAY BUOY  0711      78                N/A     5/ 8   2/ 70
LANAI BUOY       0715      80                N/A     2/15   2/200
BARBERS PT 2     0703      79                N/A     2/15   2/200
PAUWELA MAUI     0709      77                N/A     5/ 8   2/ 50
HILO             0712      79                N/A     8/ 8   2/ 30
KANEOHE BAY BUOY 0706      78                N/A     5/ 9
HANALEI KAUAI    NOT AVBL
KAHULUI HARBOR   0700   76 79   60/ 11/ 17 1018.6R
HONOLULU HARBOR  0700   75 79   50/  1/  3 1019.8R
KILO NALU        NOT AVBL
HILO HARBOR      0700   72 78  230/  6/  7 1019.2R
MOKUOLOE         0600   76 80   70/  9/ 11 1019.2R
NAWILIWILI       0700   76 80   50/  8/ 12 1019.8R
WHOTS BUOY       NOT AVBL
BUOY 51028       NOT AVBL
$$

......................KEY........................................
  SKY/WX - SKY CONDITIONS/PRESENT WEATHER
  TMP    - TEMPERATURE IN FAHRENHEIT
  DWPT   - DEWPOINT IN FAHRENHEIT
  RH     - RELATIVE HUMIDITY IN PERCENT
  WIND   - DIRECTION AND SPEED /MPH FOR ISLANDS...KTS FOR BUOYS/
  PRES   - MEAN SEA LEVEL PRESSURE IN INCHES OF HG
  VSB    - VISIBILITY IN MILES
  HX     - HEAT INDEX
  WCI    - WIND CHILL INDEX
  VRB    - VARIABLE WIND DIRECTION
  N/A    - NOT AVAILABLE



USA.gov is the U.S. government's official web portal to all federal, state and local government web resources and services.